Powrót do katalogu

FENGYUN 1C DEB

AktywnyPO
NORAD 32418·DEBRIS·🇨🇳 China

Wystrzelony May 10, 1999 z Taiyuan Satellite Launch Center

Loading…

Następne Przeloty (najbliższe 24 godziny)

TLE

NieaktualneSource: Space-Track

Epoka: Sep 2, 2026, 08:41 UTC

1 32418U 99025DAE 26245.36197075  .00002530  00000-0  12947-2 0  9995
2 32418  98.1893  95.5580 0223507   9.7395 350.8001 14.04230796666878

Śledź FENGYUN 1C DEB w czasie rzeczywistym z AllMySat

Download on the App Store